星链-5976 (STARLINK-5976 )

导读

STARLINK-5976是美国太空探索技术公司(SpaceX)星链互联网星座中的一颗卫星,于北京时间2023年4月27日8时发射入轨。星链项目旨在通过近地轨道卫星群提供全球高速互联网接入服务,STARLINK-5976承担着为地面用户提供宽带网络服务的职能,进一步拓展了星链星座的覆盖规模与服务能力。

基本信息
目录编号:
56343
目录名称:
STARLINK-5976
国际标识:
2023-058AC
轨道中心:
EARTH
卫星名称:
星链-5976
卫星全名:
星链-5976 (STARLINK-5976 )
卫星状态:
在轨 (已飞行1234 天)
发射日期:
2023-04-27 UTC
国别 :
美国 (US)
星等 :
--
该卫星已列入 空间交会检测服务 Space Conjunction Data Service (SCDS) ,当前飞行风险评估等级: 无高风险
轨道信息
数据来源 国际轨道数据
星历时间: 2026-09-12T06:34:30+0800
17小时前
查看轨道信息
半长轴: 6843.71km
偏心率: 0.000199
轨道倾角: 97.284°
近地点辐角 72.366°
升交点赤经 251.822°
平近点角 287.780°
近地点: 464.211km
远地点: 466.935km
周期: 93.907分钟
每日圈数: 15.334352
详细信息
固有亮度:
5
最大亮度:
2.5
卫星平台:
Starlink v1.5
覆盖范围:
全球
运营商:
太空探索技术公司
运营商所在国:
美国
制造商(研发单位):
太空探索技术公司
制造商所在国:
美国
使用方式:
暂无
卫星简介
星链(Starlink)计划是由太空探索技术公司(SpaceX)提出的一个巨型低轨卫星互联网星座项目,计划在2019年至2024年间在太空搭建由约1.2万颗卫星组成的“星链”网络,其中1584颗将部署在地球上空550千米处的近地轨道,并从2020年开始工作。该卫星仍在工作。
2D轨道图
3D轨道图
轨道高度分析图
轨道倾角分析图
轨道综合分析图
查看轨道综合分析图
交会数据列表
事件ID 空间交会对象 最接近时刻(TCA) 交会距离 交会风险概率(CRP) 交会风险指数(CRI) 操作
CDM_260913-212205-084105-634321
2026-09-13T
21:22:56+0000
2.321 km
极远距离
1.978406E-6 低风险 0.41
CDM_260913-195405-235305-634322
2026-09-13T
19:54:29+0000
2.488 km
极远距离
1.762632E-6 低风险 0.4
CDM_260905-123005-325705-634322
2026-09-05T
12:30:02+0000
2.953 km
极远距离
1.325924E-6 低风险 0.37
CDM_260914-233705-174905-634321
2026-09-14T
23:37:28+0000
2.908 km
极远距离
1.132013E-6 低风险 0.36
CDM_260912-215105-301605-634321
2026-09-12T
21:51:47+0000
2.758 km
极远距离
1.111486E-6 低风险 0.36
CDM_260914-075005-284005-634321
2026-09-14T
07:50:23+0000
2.700 km
极远距离
9.460902E-7 极低风险 0.35
与全量物体交会距离演化趋势
与全量物体交会风险概率演化趋势